STARLINK-36796, 67722

Orbit data source: Space-Track

STARLINK-36796, 67722 is a payload satellite owned by SpaceX/Seattle (US) in SSO that was launched on Wed, 11 Feb 2026 UTC via an FALCON 9 launch vehicle from the Air Force Western Test Range (AFWTR). Payload-class satellites include a variety of spacecraft equipped with specific instruments for various scientific and technological missions. These include communications satellites like Starlink; space stations such as the ISS; scientific satellites like the Hubble; Earth observation satellites from companies like Planet Labs, Umbra, and HawkEye 360; GPS; miniature CubeSats for education and research; and military/defense satellites.

Loading next visibility...
Identifier
67722, 2026-026B
Orbit
SSO
Country
Flag of USUS
Related business
Manufacturer
SpaceX/Seattle
Mission
Operational Commercial Communications
Bus & Motor
STARLINK V2MO, Unknown motor
Mass
575 kg wet, ~530 kg dry
Launch date (UTC)
2026-02-11 (3 months ago)
Launch vehicle
FALCON 9
Launch site
Air Force Western Test Range (AFWTR)
Object type
Payload
Rocket body
Debris
Shape & HBR
Box + 2 Pan, 17.7 m
Radar Cross Section
36.964 m²

Expand to show TLE details & history
Last TLE update: 9 hours ago

TLE from 9 hours ago
0 STARLINK-36796
1 67722U 26026B   26130.10160191  .00012609  00000-0  39221-3 0  9999
2 67722  97.2842 183.7780 0000620  97.7156 262.4157 15.33446726 13535
Epoch: 2026-05-10T02:26Z
TLE epoch observation values (Epoch: 2026-05-10T02:26:18.405Z)
Latitude
-0.00001°
Longitude
-80.7082°
Altitude
468.706 km
Speed
7.632 km/s
True Right ascension
12h 15m 06s
True Declination
0° 00' 00"
Sunlit
Object was in full shadow at epoch
Visualization orbit readout
Latitude
Unknown
Longitude
Unknown
Altitude
Unknown
Speed
Unknown
Apparent Right ascension
Unknown
Apparent Declination
Unknown
Sunlit
N/A
Visualization observer readout
Local Sidereal Time
19:48:24
Azimuth
Unknown
Elevation
Unknown
Doppler factor
Unknown
Orbital elements
Apogee altitude
462.905 km
Perigee altitude
462.057 km
Semi-major axis
6,840.618 km
Eccentricity
0.00006
Inclination
97.2842°
RAAN
183.778°
Arg. of periapsis
97.7156°
True anomaly
262.40866°
Mean anomaly
262.4157°
Eccentric anomaly
262.41218°
Mean motion
3.83619 °/min
Orbital period
93.84 mins
BSTAR
0.00039221
Loading maneuver chart data...
Computing Atmospheric mass density...
Loading historical data...
Loading historical data...
Loading historical data...
Loading historical data...
Loading historical data...
Loading historical data...
Loading historical data...

Documentation

Showing up to 5 results
|